When you browse on this site, cookies collect data to enhance your experience and personalize the content and advertising you see.
Visit our Privacy Policy to learn more. By continuing to use the site, you agree to this use of cookies and data.
  • In Switzerland
  • List of Countries
  • For 7 days
  • Water Temperature
  • Weather Map
  • Weather Widgets
  • user-avatar
    Login

    Hourly Weather Rio Branco

    Today, 5 June, Friday

    Time Temperature Precipitation Wind Pressure Humidity
    00:00 +22°C° 0 mm 0 mps 748 mmHg 95%
    01:00 +24°C° 0 mm 1 mps 747 mmHg 96%
    02:00 +24°C° 0.2 mm 1 mps 747 mmHg 96%
    03:00 +23°C° 0.2 mm 1 mps 747 mmHg 97%
    04:00 +23°C° 0.2 mm 1 mps 747 mmHg 98%
    05:00 +24°C° 0 mm 1 mps 747 mmHg 97%
    06:00 +24°C° 0 mm 1 mps 748 mmHg 95%
    07:00 +24°C° 0 mm 1 mps 748 mmHg 94%
    08:00 +26°C° 0 mm 1 mps 749 mmHg 86%
    09:00 +28°C° 0 mm 1 mps 749 mmHg 78%
    10:00 +30°C° 0 mm 1 mps 749 mmHg 70%
    11:00 +31°C° 0 mm 1 mps 748 mmHg 67%
    12:00 +32°C° 0 mm 1 mps 748 mmHg 64%
    13:00 +31°C° 0 mm 0 mps 747 mmHg 61%
    14:00 +30°C° 0.3 mm 0 mps 746 mmHg 68%
    15:00 +29°C° 0.3 mm 0 mps 746 mmHg 74%
    16:00 +28°C° 0.3 mm 0 mps 745 mmHg 81%
    17:00 +27°C° 0.2 mm 0 mps 746 mmHg 85%
    18:00 +25°C° 0.2 mm 0 mps 746 mmHg 89%
    19:00 +24°C° 0.2 mm 0 mps 746 mmHg 93%
    20:00 +23°C° 0.1 mm 0 mps 747 mmHg 93%
    21:00 +23°C° 0.1 mm 0 mps 748 mmHg 94%
    22:00 +23°C° 0.1 mm 0 mps 748 mmHg 94%
    23:00 +23°C° 0 mm 0 mps 748 mmHg 94%

    Tomorrow, 6 June, Saturday

    Time Temperature Precipitation Wind Pressure Humidity
    00:00 +23°C° 0 mm 0 mps 748 mmHg 94%
    01:00 +23°C° 0 mm 0 mps 748 mmHg 94%
    02:00 +22°C° 0.1 mm 0 mps 747 mmHg 95%
    03:00 +22°C° 0.1 mm 0 mps 747 mmHg 95%
    04:00 +22°C° 0.1 mm 0 mps 747 mmHg 95%
    05:00 +23°C° 0 mm 0 mps 748 mmHg 95%
    06:00 +23°C° 0 mm 0 mps 748 mmHg 94%
    07:00 +25°C° 0 mm 1 mps 748 mmHg 93%
    08:00 +27°C° 0.6 mm 1 mps 749 mmHg 89%
    09:00 +29°C° 0.6 mm 1 mps 749 mmHg 84%
    10:00 +30°C° 0.6 mm 1 mps 749 mmHg 79%
    11:00 +31°C° 1.8 mm 1 mps 748 mmHg 79%
    12:00 +31°C° 1.8 mm 1 mps 747 mmHg 78%
    13:00 +31°C° 1.8 mm 1 mps 746 mmHg 77%
    14:00 +31°C° 0.6 mm 1 mps 746 mmHg 80%
    15:00 +30°C° 0.6 mm 1 mps 745 mmHg 82%
    16:00 +30°C° 0.6 mm 1 mps 745 mmHg 85%
    17:00 +29°C° 0.1 mm 1 mps 745 mmHg 87%
    18:00 +25°C° 0.1 mm 0 mps 746 mmHg 90%
    19:00 +24°C° 0.1 mm 0 mps 746 mmHg 93%
    20:00 +23°C° 0 mm 0 mps 747 mmHg 93%
    21:00 +23°C° 0 mm 0 mps 747 mmHg 93%
    22:00 +23°C° 0 mm 0 mps 748 mmHg 93%
    23:00 +23°C° 0 mm 0 mps 747 mmHg 93%

    Day after tomorrow, 7 June, Sunday

    Time Temperature Precipitation Wind Pressure Humidity
    00:00 +22°C° 0 mm 0 mps 747 mmHg 94%
    01:00 +22°C° 0 mm 0 mps 747 mmHg 94%
    02:00 +22°C° 0.1 mm 0 mps 747 mmHg 94%
    03:00 +22°C° 0.1 mm 0 mps 747 mmHg 94%
    04:00 +22°C° 0.1 mm 0 mps 747 mmHg 95%
    05:00 +23°C° 0.5 mm 0 mps 747 mmHg 95%
    06:00 +23°C° 0.5 mm 0 mps 748 mmHg 95%
    07:00 +23°C° 0.5 mm 0 mps 748 mmHg 95%
    08:00 +25°C° 0.3 mm 0 mps 749 mmHg 89%
    09:00 +27°C° 0.3 mm 0 mps 749 mmHg 83%
    10:00 +28°C° 0.3 mm 0 mps 749 mmHg 77%
    11:00 +29°C° 0.6 mm 0 mps 748 mmHg 71%
    12:00 +30°C° 0.6 mm 0 mps 747 mmHg 66%
    13:00 +32°C° 0.6 mm 0 mps 746 mmHg 60%
    14:00 +33°C° 0.2 mm 1 mps 746 mmHg 65%
    15:00 +32°C° 0.2 mm 1 mps 745 mmHg 71%
    16:00 +31°C° 0.2 mm 1 mps 745 mmHg 76%
    17:00 +29°C° 0.1 mm 1 mps 745 mmHg 80%
    18:00 +28°C° 0.1 mm 1 mps 746 mmHg 84%
    19:00 +26°C° 0.1 mm 1 mps 746 mmHg 88%
    20:00 +24°C° 0 mm 0 mps 746 mmHg 89%
    21:00 +24°C° 0 mm 0 mps 747 mmHg 90%
    22:00 +24°C° 0 mm 0 mps 747 mmHg 91%
    23:00 +23°C° 0 mm 0 mps 747 mmHg 91%

    8 June, Monday

    Time Temperature Precipitation Wind Pressure Humidity
    00:00 +23°C° 0 mm 0 mps 747 mmHg 92%
    01:00 +23°C° 0 mm 0 mps 747 mmHg 92%
    02:00 +23°C° 0 mm 0 mps 747 mmHg 93%
    03:00 +23°C° 0 mm 0 mps 746 mmHg 94%
    04:00 +22°C° 0 mm 0 mps 746 mmHg 94%
    05:00 +23°C° 0 mm 0 mps 747 mmHg 93%
    06:00 +23°C° 0 mm 0 mps 747 mmHg 91%
    07:00 +24°C° 0 mm 0 mps 748 mmHg 90%
    08:00 +26°C° 0 mm 0 mps 748 mmHg 81%
    09:00 +28°C° 0 mm 0 mps 748 mmHg 73%
    10:00 +31°C° 0 mm 0 mps 748 mmHg 65%
    11:00 +33°C° 0.3 mm 1 mps 747 mmHg 63%
    12:00 +33°C° 0.3 mm 1 mps 747 mmHg 60%
    13:00 +34°C° 0.3 mm 1 mps 746 mmHg 58%
    14:00 +33°C° 0.1 mm 1 mps 745 mmHg 64%
    15:00 +32°C° 0.1 mm 1 mps 745 mmHg 70%
    16:00 +31°C° 0.1 mm 1 mps 744 mmHg 75%
    17:00 +30°C° 0 mm 1 mps 745 mmHg 79%
    18:00 +28°C° 0 mm 1 mps 745 mmHg 83%
    19:00 +27°C° 0 mm 1 mps 745 mmHg 87%
    20:00 +26°C° 0 mm 1 mps 746 mmHg 87%
    21:00 +26°C° 0 mm 1 mps 746 mmHg 87%
    22:00 +26°C° 0 mm 1 mps 746 mmHg 87%
    23:00 +25°C° 0 mm 1 mps 746 mmHg 88%

    9 June, Tuesday

    Time Temperature Precipitation Wind Pressure Humidity
    00:00 +25°C° 0 mm 1 mps 746 mmHg 88%
    01:00 +25°C° 0 mm 1 mps 746 mmHg 89%
    02:00 +25°C° 0 mm 1 mps 746 mmHg 89%
    03:00 +23°C° 0 mm 0 mps 746 mmHg 90%
    04:00 +22°C° 0 mm 0 mps 746 mmHg 91%
    05:00 +23°C° 0 mm 0 mps 746 mmHg 89%
    06:00 +24°C° 0 mm 0 mps 747 mmHg 87%
    07:00 +24°C° 0 mm 0 mps 747 mmHg 85%
    08:00 +26°C° 0.1 mm 0 mps 747 mmHg 78%
    09:00 +29°C° 0.1 mm 0 mps 747 mmHg 70%
    10:00 +33°C° 0.1 mm 1 mps 748 mmHg 63%
    11:00 +33°C° 0.1 mm 1 mps 747 mmHg 59%
    12:00 +32°C° 0.1 mm 0 mps 746 mmHg 56%
    13:00 +32°C° 0.1 mm 0 mps 745 mmHg 53%
    14:00 +32°C° 0 mm 0 mps 745 mmHg 57%
    15:00 +31°C° 0 mm 0 mps 744 mmHg 61%
    16:00 +31°C° 0 mm 0 mps 744 mmHg 65%
    17:00 +29°C° 0 mm 0 mps 744 mmHg 69%
    18:00 +27°C° 0 mm 0 mps 744 mmHg 73%
    19:00 +25°C° 0 mm 0 mps 744 mmHg 77%
    20:00 +25°C° 0 mm 0 mps 744 mmHg 78%
    21:00 +25°C° 0 mm 0 mps 745 mmHg 79%
    22:00 +24°C° 0 mm 0 mps 745 mmHg 80%
    23:00 +24°C° 0 mm 0 mps 745 mmHg 80%

    10 June, Wednesday

    Time Temperature Precipitation Wind Pressure Humidity
    00:00 +24°C° 0 mm 0 mps 745 mmHg 80%
    01:00 +23°C° 0 mm 0 mps 745 mmHg 80%
    02:00 +23°C° 0 mm 0 mps 745 mmHg 82%
    03:00 +22°C° 0 mm 0 mps 745 mmHg 83%
    04:00 +22°C° 0 mm 0 mps 745 mmHg 85%
    05:00 +22°C° 0 mm 0 mps 745 mmHg 84%
    06:00 +23°C° 0 mm 0 mps 746 mmHg 82%
    07:00 +24°C° 0 mm 0 mps 746 mmHg 81%
    08:00 +26°C° 0 mm 0 mps 746 mmHg 73%
    09:00 +29°C° 0 mm 0 mps 746 mmHg 66%
    10:00 +31°C° 0 mm 0 mps 747 mmHg 58%
    11:00 +32°C° 0 mm 0 mps 746 mmHg 56%
    12:00 +32°C° 0 mm 0 mps 745 mmHg 54%
    13:00 +32°C° 0 mm 0 mps 744 mmHg 52%
    14:00 +32°C° 0 mm 0 mps 744 mmHg 56%
    15:00 +31°C° 0 mm 0 mps 743 mmHg 60%
    16:00 +30°C° 0 mm 0 mps 743 mmHg 64%
    17:00 +29°C° 0 mm 0 mps 743 mmHg 67%
    18:00 +27°C° 0 mm 0 mps 743 mmHg 70%
    19:00 +26°C° 0 mm 0 mps 744 mmHg 73%
    20:00 +25°C° 0 mm 0 mps 744 mmHg 74%
    21:00 +25°C° 0 mm 0 mps 744 mmHg 76%
    22:00 +26°C° 0 mm 1 mps 745 mmHg 78%
    23:00 +26°C° 0 mm 1 mps 745 mmHg 79%
    Show more